Regional Weather Roundup
Issued by NWS

Home | Current Version | Previous Version | Text Only | Print | Product List | Glossary Off
Versions: 1 2 3 4 5 6 7 8 9 10 11 12 13 14 15 16 17 18 19 20 21 22 23 24 25 26 27 28 29 30 31 32 33 34 35 36 37 38 39 40 41 42 43 44 45 46 47 48 49 50

000
ASUS43 KDMX 311107
RWRIA

WEATHER ROUNDUP FOR IOWA
NATIONAL WEATHER SERVICE DES MOINES IA
600 AM CDT SUN AUG 31 2014

NOTE: "FAIR" INDICATES FEW OR NO CLOUDS BELOW 12,000 FEET WITH NO
SIGNIFICANT WEATHER AND/OR OBSTRUCTIONS TO VISIBILITY.

* - THESE STATIONS ARE NOT NWS STATIONS...THUS NOT UNDER NWS
QUALITY CONTROL.  THEY ALSO DO NOT REPORT WEATHER SUCH
AS PRECIPITATION OR FOG.

IAZ001>003-012>014-020>022-031>034-043>046-311200-
   NORTHWEST IOWA

CITY           SKY/WX    TMP DP  RH WIND       PRES   REMARKS
CARROLL *      CLEAR     63  63 100 SE5       29.83F FOG
CHEROKEE *     PTCLDY    64  64 100 S3        29.79F
DENISON *      CLEAR     68  66  94 S12G21    29.79S
LE MARS *        N/A     66  64  94 SE9       29.76F
ORANGE CITY *  CLEAR     66  63  88 S8        29.77F
SHELDON *      CLEAR     64  64 100 S9G15     29.76S
STORM LAKE *   CLEAR     63  63 100 S9        29.82S FOG
$$

IAZ055>058-069>071-079>083-090>094-311200-
   SOUTHWEST IOWA

CITY           SKY/WX    TMP DP  RH WIND       PRES   REMARKS
ATLANTIC *     CLEAR     68  66  94 S9        29.83F
AUDUBON *      CLEAR     68  66  94 S5        29.85S
CLARINDA *     CLEAR     64  64 100 CALM      29.86S
COUNCIL BLFS * CLEAR     68  68 100 S14       29.81S
CRESTON *      CLEAR     68  66  94 S8        29.88S
HARLAN  *      CLEAR     68  66  94 S10       29.86S
RED OAK *      CLEAR     66  66 100 S3        29.84S
SHENANDOAH *   CLEAR     68  66  94 CALM      29.84S
$$

IAZ047>049-059>061-072>074-084-311200-
   CENTRAL IOWA

CITY           SKY/WX    TMP DP  RH WIND       PRES   REMARKS
ANKENY *       CLEAR     64  64 100 CALM      29.87S
CHARITON *     PTCLDY    64  64 100 S8        29.89S
GRINNELL*      CLEAR     64  63  94 SE6       29.90S
KNOXVILLE *    PTCLDY    64  64 100 SE7       29.88R
PELLA *        CLEAR     64  64 100 SE5       29.90S
PERRY *          N/A     63  63 100 SE6       29.86S FOG
$$

IAZ004>006-015-016-023>025-035-036-311200-
   NORTH CENTRAL IOWA

CITY           SKY/WX    TMP DP  RH WIND       PRES   REMARKS
ALGONA *       CLEAR     64  63  94 SE13      29.83F
CLARION *      CLEAR     64  64 100 SE9       29.85F
FOREST CITY *  CLEAR     61  61 100 SE6       29.86S
IOWA FALLS *     N/A     61  59  94 SE5       29.89S FOG
$$

IAZ007>011-017>019-026>030-037>042-050>054-066-311200-
   NORTHEAST IOWA

CITY           SKY/WX    TMP DP  RH WIND       PRES   REMARKS
CHARLES CITY * CLEAR     63  61  94 SE7       29.89S FOG
DECORAH *      FOG       61  61 100 CALM      29.90S VSB 1/4
MONTICELLO *   MOCLDY    63  63 100 CALM      29.91S
OELWEIN *      FOG       61  61 100 E6        29.90F VSB 0
$$

IAZ064-065-067-068-078-311200-
   EAST CENTRAL IOWA

CITY           SKY/WX    TMP DP  RH WIND       PRES   REMARKS
MT. PLEASANT * CLEAR     66  64  94 SE5       29.92S FOG
MUSCATINE *    FOG       64  63  94 CALM      29.92S VSB 0
$$

IAZ062-063-075>077-085>089-095>099-311200-
   SOUTHEAST IOWA

CITY           SKY/WX    TMP DP  RH WIND       PRES   REMARKS
FAIRFIELD *    CLEAR     64  63  94 CALM      29.92R FOG
FORT MADISON * CLEAR     66  66 100 SE3       29.93S FOG
KEOKUK *       FOG       66  66 100 SE3       29.92R VSB 1/2
OSKALOOSA *    FOG       63  63 100 SE5       29.90S VSB 1
CENTERVILLE *  CLEAR     64  64 100 SE6       29.92S
WASHINGTON *   FOG       61  61 100 CALM      29.92R VSB 3/4
$$

ABBREVIATIONS USED IN REMARKS
   TC - TEMPERATURES IN CELSIUS
  WCI - WIND CHILL INDEX
   HX - HEAT INDEX
  VSB - VISIBILITY
$$




USA.gov is the U.S. government's official web portal to all federal, state and local government web resources and services.